Regional Weather Roundup
Issued by NWS Columbia, SC

Home | Current Version | Previous Version | Text Only | Print | Product List | Glossary On
Versions: 1 2 3 4 5 6 7 8 9 10 11 12 13 14 15 16 17 18 19 20 21 22 23 24 25 26 27
000
ASUS42 KCAE 250210
RWRCAE
REGIONAL WEATHER ROUNDUP
NATIONAL WEATHER SERVICE COLUMBIA SC
1000 PM EDT FRI OCT 24 2014

NOTE: "FAIR" INDICATES FEW OR NO CLOUDS BELOW 12,000 FEET WITH NO
SIGNIFICANT WEATHER AND/OR OBSTRUCTIONS TO VISIBILITY.

NOT ALL STATIONS ARE QUALITY CONTROLLED BY THE NATIONAL
WEATHER SERVICE. USE DATA WITH CAUTION...ESPECIALLY
DEWPOINT OBSERVATIONS.

SCZ001>056-GAZ040-063>065-077-250300-
...UPSTATE SOUTH CAROLINA...

CITY           SKY/WX    TMP DP  RH WIND       PRES   REMARKS
ANDERSON       CLEAR     51  48  89 CALM      30.03R
LIBERTY        FAIR      48  47  97 MISG      30.03S
SPARTANBURG    FAIR      50  50 100 CALM      30.02S
CLEMSON        CLEAR     57  50  77 NW5       30.04R
GREENVILLE     CLEAR     54  46  74 CALM      30.04R
GREENWOOD      CLEAR     50  47  89 CALM      30.04R
GREER          CLEAR     52  49  89 W3        30.02R
ROCK HILL      CLEAR     47  44  90 CALM      30.03R
LAURENS        FAIR      46 N/A N/A CALM      30.04R


...CENTRAL SOUTH CAROLINA...

CITY           SKY/WX    TMP DP  RH WIND       PRES   REMARKS
COLUMBIA APT   PTCLDY    54  49  83 CALM      30.01S
COLUMBIA OWENS CLEAR     55  50  83 CALM      30.03R
DARLINGTON     CLOUDY    55  48  76 CALM      30.02R
FLORENCE       CLOUDY    57  51  80 CALM      30.00R
MCENTIRE ANGB  MOCLDY    53  50  91 CALM      30.02R
ORANGEBURG     MOCLDY    57  51  80 CALM      30.01R
SUMTER SHAW    MOCLDY    58  48  69 W5        30.00R
NEWBERRY       FAIR      50  50 100 CALM      30.06R
AIKEN          FAIR      52  46  82 CALM      30.05R
BARNWELL       FAIR      57  48  72 NW3       30.03R
MANNING        FAIR      59 N/A N/A CALM      30.01R
CAMDEN         FAIR      54  50  87 CALM      30.02R
LANCASTER      RAIN      52  52 100 CALM      30.03R
WINNSBORO      FAIR      52  48  87 NW3       30.02R


...EASTERN AND COASTAL SOUTH CAROLINA...

CITY           SKY/WX    TMP DP  RH WIND       PRES   REMARKS
MYRTLE BEACH   CLEAR     57  52  82 CALM      29.99S
N MYRTLE BCH   MOCLDY    54  52  93 CALM      29.99R
CONWAY         FAIR      52  52 100 CALM      30.01R
MARION         FAIR      54  52  94 CALM      30.00R
FLORENCE       CLOUDY    57  51  80 CALM      30.00R
DARLINGTON     CLOUDY    55  48  76 CALM      30.02R
CHARLESTON APT CLOUDY    60  52  74 CALM      30.00R
MOUNT PLEASANT FAIR      55  54  94 CALM      30.00R
WALTERBORO     CLOUDY    59  55  88 CALM      30.01R
BEAUFORT       MOCLDY    57  51  80 W3        30.00R


...EASTERN GEORGIA...

CITY           SKY/WX    TMP DP  RH WIND       PRES   REMARKS
AUGUSTA BUSH F CLEAR     50  44  80 CALM      30.02R
AUGUSTA DANIEL CLEAR     61  46  57 NW5       30.03R
THOMSON        CLEAR     52  52 100 CALM      30.06S
WASHINGTON     FAIR      55  55 100 CALM      30.02R
CLAXTON        FAIR      52  52 100 CALM      30.02R
SYLVANIA       CLEAR     58  55  92 CALM      30.02R
SAVANNAH       PTCLDY    59  51  75 CALM      30.01R


...SOUTHERN NORTH CAROLINA...

CITY           SKY/WX    TMP DP  RH WIND       PRES   REMARKS
CHARLOTTE      CLEAR     53  46  77 NW5       30.03R
MONROE         PTCLDY    53  46  77 CALM      30.02R
WADESBORO      MOCLDY   N/A N/A N/A CALM      30.02R
ROCKINGHAM     CLOUDY    54  50  84 CALM      30.01R
RUTHERFORDTON  CLEAR     49  46  90 CALM      30.04S
ASHEVILLE      CLEAR     53  37  54 N5        30.08R

$$



USA.gov is the U.S. government's official web portal to all federal, state and local government web resources and services.